[[{"header":{"parameterUnit":"m.s-1","parameterCategory":1,"la1":30.2991,"la2":30.254,"lo1":-89.0895,"lo2":-89.0444,"dy":0.0017,"dx":0.0017,"nx":28,"ny":28,"refTime":"2023-10-06T21:00:00:Z","depth":0,"parameterNumber":2,"parameterNumberName":"U-component_of_WINDS"},"data":[0,0,0,0,0,0,0,0,0,0,0,0,0,0,0,0,0,0,0,0,0,0,0,0,0,0,0,0,0,0,0,0,0,0,0,0,0,0,0,0,0,0,0,0,0,0,0,0,0,0,0,0,0,0,0,0,0,0,-0.4704,-0.4705,0,-0.474,-0.474,-0.4741,-0.4729,-0.4728,-0.4727,-0.4727,-0.4764,-0.4765,-0.4767,0,0,0,0,0,0,0,0,0,0,0,0,0,-0.4627,-0.4628,-0.4704,-0.4705,-0.4705,-0.474,-0.474,-0.4741,-0.4729,-0.4728,-0.4727,-0.4726,-0.4763,-0.4765,-0.4767,0,0,0,0,0,0,0,0,0,0,0,0,0,-0.4661,-0.4629,-0.4704,-0.4704,-0.4704,-0.474,-0.474,-0.4741,-0.4729,-0.4728,-0.4727,-0.4726,-0.4763,-0.4765,-0.4768,-0.4806,0,0,-0.4775,-0.4776,0,0,0,0,0,0,0,0,-0.4659,-0.4664,-0.4703,-0.4704,-0.4704,-0.4729,-0.4726,-0.4763,-0.473,-0.472,-0.4727,-0.4725,-0.4753,-0.4756,-0.4766,-0.4808,-0.481,-0.4776,-0.4777,-0.4778,-0.4779,0,0,0,0,0,0,0,-0.4657,-0.4663,-0.4718,-0.4704,-0.4704,-0.4702,-0.4705,-0.4733,-0.4742,-0.472,-0.472,-0.4724,-0.4753,-0.4763,-0.4766,-0.481,-0.4776,-0.4778,-0.4779,-0.478,-0.4886,-0.4887,0,0,0,0,0,0,-0.4654,-0.4661,-0.4717,-0.4719,-0.4678,-0.4704,-0.4708,-0.4722,-0.4742,-0.4744,-0.4725,-0.4723,-0.4759,-0.4763,-0.4768,-0.4815,-0.4778,-0.4781,-0.4782,-0.4885,-0.4887,-0.4888,0,0,0,0,0,0,-0.4653,-0.4659,-0.4716,-0.469,-0.4697,-0.4706,-0.4722,-0.4723,-0.4733,-0.4745,-0.4747,-0.4733,-0.4759,-0.4764,-0.4797,-0.4816,-0.4782,-0.4784,-0.4883,-0.4885,-0.4887,-0.4909,0,0,0,0,0,0,-0.4651,-0.4659,-0.4674,-0.469,-0.4698,-0.4745,-0.4723,-0.4725,-0.4738,-0.4736,-0.4754,-0.4756,-0.4758,-0.4793,-0.4799,-0.4819,-0.4786,-0.4882,-0.4884,-0.4887,-0.4907,-0.4912,-0.4916,0,0,0,0,0,-0.4648,-0.4679,-0.4675,-0.4682,-0.4717,-0.4746,-0.475,-0.4752,-0.4739,-0.4754,-0.4762,-0.4755,-0.4812,-0.4796,-0.4803,-0.4824,-0.4881,-0.4884,-0.4886,-0.4905,-0.4911,-0.4916,0,0,0,0,0,0,-0.4665,-0.4681,-0.4677,-0.4714,-0.4728,-0.4744,-0.4763,-0.4758,-0.4777,-0.4774,-0.4776,-0.478,-0.4814,-0.4822,-0.4804,-0.4862,-0.4845,-0.4849,-0.4856,-0.4862,-0.4866,-0.4864,-0.4788,0,0,0,0,0,-0.4673,-0.4695,-0.4708,-0.4739,-0.4747,-0.4753,-0.4766,-0.4766,-0.4781,-0.4787,-0.4797,-0.4813,-0.4834,-0.4848,-0.4868,-0.4907,-0.4911,-0.4925,-0.4929,-0.4933,-0.4937,-0.4959,-0.4965,-0.4897,-0.4897,-0.4897,0,0,-0.4691,-0.4702,-0.4716,-0.4743,-0.4754,-0.4777,-0.4759,-0.4784,-0.4801,-0.4791,-0.4823,-0.4831,-0.4848,-0.4884,-0.49,-0.4892,-0.4956,-0.4936,-0.4939,-0.4942,-0.4962,-0.4969,-0.4974,-0.4899,-0.4899,-0.4899,0,0,-0.4734,-0.4744,-0.4772,-0.4783,-0.48,-0.4804,-0.4811,-0.4826,-0.4831,-0.4863,-0.4856,-0.4876,-0.4913,-0.4925,-0.4936,-0.4982,-0.4977,-0.4989,-0.5013,-0.5034,-0.5039,-0.5044,-0.5061,-0.5067,-0.4993,-0.4993,-0.4993,0,-0.4753,-0.4787,-0.4787,-0.4812,-0.4825,-0.4816,-0.4844,-0.4855,-0.4878,-0.4887,-0.4877,-0.4922,-0.4933,-0.4972,-0.4983,-0.4992,-0.5,-0.4988,-0.5038,-0.5043,-0.5047,-0.5064,-0.5071,-0.4994,-0.4994,-0.4994,-0.4994,0,-0.4811,-0.4834,-0.4854,-0.4876,-0.4891,-0.4917,-0.4921,-0.4935,-0.4934,-0.4939,-0.4971,-0.4983,-0.5006,-0.5014,-0.5013,-0.5053,-0.5048,-0.5038,-0.502,-0.5055,-0.5071,-0.5077,-0.4996,-0.4996,-0.4995,-0.4995,0,0,-0.4868,-0.4888,-0.4896,-0.4906,-0.4923,-0.4941,-0.4967,-0.4989,-0.5001,-0.5017,-0.5039,-0.5069,-0.506,-0.5073,-0.5072,-0.509,-0.5127,-0.5078,-0.5079,-0.5088,-0.5173,-0.5181,-0.5189,-0.5123,-0.5124,-0.5125,-0.5172,0,-0.4914,-0.4959,-0.4959,-0.5001,-0.5023,-0.5014,-0.5037,-0.505,-0.5055,-0.5074,-0.5079,-0.5102,-0.5087,-0.5095,-0.5112,-0.5119,-0.5144,-0.5115,-0.5144,-0.5145,-0.5142,-0.5197,-0.5206,-0.525,-0.5178,-0.5179,-0.518,0,-0.4974,-0.4991,-0.5035,-0.5049,-0.5058,-0.5078,-0.5098,-0.5116,-0.513,-0.5133,-0.5146,-0.5142,-0.5169,-0.5149,-0.5185,-0.5165,-0.5177,-0.5182,-0.5184,-0.5188,-0.5166,-0.5204,-0.5264,-0.5271,-0.5189,-0.5188,-0.5188,0,-0.5012,-0.5046,-0.5077,-0.5086,-0.5102,-0.5117,-0.5124,-0.5137,-0.515,-0.5167,-0.5175,-0.5195,-0.5206,-0.5222,-0.5224,-0.5209,-0.526,-0.524,-0.5264,-0.5264,-0.5277,-0.5276,-0.5341,-0.5281,-0.5281,-0.5281,-0.5281,0,-0.5064,-0.5092,-0.5095,-0.5114,-0.5145,-0.5144,-0.5174,-0.518,-0.5192,-0.5212,-0.5205,-0.5225,-0.5225,-0.5245,-0.5246,-0.5276,-0.5281,-0.5284,-0.5284,-0.5286,-0.5286,-0.5295,-0.5292,-0.5283,-0.5282,-0.5282,-0.5282,0,-0.5114,-0.5117,-0.515,-0.5162,-0.5166,-0.5188,-0.5199,-0.5217,-0.5221,-0.5247,-0.5252,-0.5258,-0.5281,-0.5284,-0.531,-0.5311,-0.5348,-0.5344,-0.5343,-0.5343,-0.5367,-0.5365,-0.5441,-0.5451,-0.5383,-0.5384,-0.5385,0,-0.5148,-0.5169,-0.5183,-0.5196,-0.5205,-0.5226,-0.5238,-0.5238,-0.5251,-0.5269,-0.5285,-0.5307,-0.5324,-0.5361,-0.5367,-0.5387,-0.5385,-0.541,-0.5388,-0.5389,-0.5387,-0.5386,-0.5389,-0.5415,-0.5416,-0.5416,-0.5417,0,-0.5208,-0.5208,-0.5227,-0.5246,-0.5262,-0.5277,-0.5291,-0.5302,-0.5303,-0.5318,-0.5341,-0.5355,-0.5381,-0.5403,-0.5422,-0.543,-0.5424,-0.5423,-0.543,-0.5432,-0.5432,-0.5434,-0.5356,-0.5422,-0.5422,-0.5421,-0.5421,-0.5421,-0.5252,-0.527,-0.5283,-0.5304,-0.5315,-0.5328,-0.5346,-0.5351,-0.537,-0.5391,-0.5389,-0.5415,-0.5428,-0.5453,-0.5462,-0.5482,-0.5474,-0.5483,-0.5486,-0.5488,-0.5491,-0.5427,-0.5485,-0.5485,-0.5485,-0.5485,-0.5485,0,-0.5313,-0.5321,-0.534,-0.536,-0.5376,-0.5367,-0.5382,-0.5397,-0.5419,-0.5431,-0.5448,-0.5475,-0.5495,-0.5503,-0.5523,-0.5538,-0.5535,-0.5543,-0.5543,-0.5545,-0.5497,-0.549,-0.5545,-0.5545,-0.5545,-0.5545,-0.5545,-0.5545,-0.5347,-0.5378,-0.5379,-0.5415,-0.5422,-0.5447,-0.5456,-0.5468,-0.5478,-0.5507,-0.5524,-0.5529,-0.5539,-0.556,-0.5579,-0.558,-0.5589,-0.5598,-0.5599,-0.5554,-0.5548,-0.5543,-0.5536,-0.56,-0.56,-0.5645,-0.5646,-0.5646]},{"header":{"parameterUnit":"m.s-1","parameterCategory":1,"la1":30.2991,"la2":30.254,"lo1":-89.0895,"lo2":-89.0444,"dy":0.0017,"dx":0.0017,"nx":28,"ny":28,"refTime":"2023-10-06T21:00:00:Z","depth":0,"parameterNumber":3,"parameterNumberName":"V-component_of_WINDS"},"data":[0,0,0,0,0,0,0,0,0,0,0,0,0,0,0,0,0,0,0,0,0,0,0,0,0,0,0,0,0,0,0,0,0,0,0,0,0,0,0,0,0,0,0,0,0,0,0,0,0,0,0,0,0,0,0,0,0,0,-6.8017,-6.8018,0,-6.8143,-6.8144,-6.8145,-6.8069,-6.8065,-6.8062,-6.8058,-6.8181,-6.8187,-6.8194,0,0,0,0,0,0,0,0,0,0,0,0,0,-6.7704,-6.771,-6.8016,-6.8018,-6.802,-6.8142,-6.8144,-6.8146,-6.807,-6.8065,-6.8061,-6.8057,-6.8179,-6.8186,-6.8194,0,0,0,0,0,0,0,0,0,0,0,0,0,-6.7836,-6.7712,-6.8016,-6.7997,-6.7996,-6.8142,-6.8144,-6.8146,-6.8071,-6.8065,-6.806,-6.8055,-6.8176,-6.8186,-6.8195,-6.8366,0,0,-6.8226,-6.823,0,0,0,0,0,0,0,0,-6.7828,-6.7847,-6.7998,-6.7998,-6.7998,-6.8085,-6.8079,-6.822,-6.8072,-6.8042,-6.8058,-6.8052,-6.8153,-6.8164,-6.82,-6.8371,-6.8377,-6.8227,-6.8233,-6.8237,-6.824,0,0,0,0,0,0,0,-6.7819,-6.7841,-6.8066,-6.8,-6.8,-6.7979,-6.7992,-6.8105,-6.8126,-6.8044,-6.8039,-6.8055,-6.8152,-6.819,-6.8202,-6.8378,-6.8226,-6.8235,-6.8241,-6.8245,-6.8696,-6.8702,0,0,0,0,0,0,-6.7812,-6.7834,-6.8062,-6.807,-6.7898,-6.799,-6.8004,-6.8062,-6.8125,-6.8129,-6.806,-6.8051,-6.8176,-6.819,-6.8206,-6.841,-6.8237,-6.8246,-6.8252,-6.869,-6.8698,-6.8704,0,0,0,0,0,0,-6.7806,-6.7834,-6.8057,-6.7951,-6.7978,-6.8001,-6.8067,-6.8068,-6.8106,-6.8137,-6.8139,-6.8096,-6.8172,-6.8192,-6.8327,-6.8413,-6.8251,-6.826,-6.8683,-6.8693,-6.8701,-6.882,0,0,0,0,0,0,-6.7797,-6.7832,-6.7898,-6.7953,-6.7984,-6.8179,-6.8072,-6.8074,-6.8124,-6.8114,-6.8171,-6.8175,-6.8169,-6.8313,-6.8337,-6.8424,-6.8268,-6.8676,-6.8688,-6.8698,-6.8809,-6.8832,-6.8852,0,0,0,0,0,-6.7787,-6.7925,-6.7902,-6.793,-6.8068,-6.8184,-6.8201,-6.8193,-6.8132,-6.8198,-6.8217,-6.8173,-6.84,-6.8327,-6.8354,-6.8445,-6.867,-6.8684,-6.8697,-6.8799,-6.8827,-6.8852,0,0,0,0,0,0,-6.7877,-6.7932,-6.7907,-6.8067,-6.8122,-6.8171,-6.8254,-6.8224,-6.8295,-6.8282,-6.8268,-6.8281,-6.8423,-6.8447,-6.8365,-6.8613,-6.8525,-6.8545,-6.8593,-6.8621,-6.8642,-6.8634,-6.8276,0,0,0,0,0,-6.7916,-6.8008,-6.805,-6.8187,-6.8216,-6.8231,-6.8281,-6.8271,-6.8325,-6.8347,-6.8376,-6.8429,-6.8512,-6.8567,-6.8645,-6.8811,-6.8822,-6.8887,-6.8909,-6.8926,-6.8944,-6.9034,-6.9064,-6.8749,-6.8749,-6.8748,0,0,-6.7997,-6.8038,-6.8097,-6.8207,-6.8248,-6.8342,-6.825,-6.8353,-6.8422,-6.8362,-6.8493,-6.8516,-6.8574,-6.8726,-6.8794,-6.875,-6.9033,-6.8944,-6.8958,-6.8966,-6.9051,-6.9081,-6.9107,-6.8758,-6.8756,-6.8755,0,0,-6.8193,-6.8234,-6.8354,-6.8397,-6.8461,-6.847,-6.8498,-6.8552,-6.8566,-6.8698,-6.8655,-6.8735,-6.8878,-6.8922,-6.8963,-6.9176,-6.9139,-6.9201,-6.9316,-6.9404,-6.9429,-6.9451,-6.9528,-6.9556,-6.9218,-6.9219,-6.9219,0,-6.8285,-6.8427,-6.8418,-6.8526,-6.8575,-6.8527,-6.8647,-6.8689,-6.8774,-6.8809,-6.8759,-6.8939,-6.8974,-6.9136,-6.9188,-6.9223,-6.9254,-6.9196,-6.9426,-6.9448,-6.9468,-6.9542,-6.9571,-6.9226,-6.9225,-6.9224,-6.9224,0,-6.8538,-6.8637,-6.8726,-6.8813,-6.8872,-6.8985,-6.8991,-6.9052,-6.9036,-6.905,-6.9183,-6.9224,-6.9311,-6.9348,-6.9332,-6.9508,-6.9479,-6.9428,-6.9339,-6.9506,-6.9575,-6.9603,-6.9237,-6.9234,-6.9232,-6.923,0,0,-6.8795,-6.8877,-6.8909,-6.8949,-6.9016,-6.9091,-6.9201,-6.9288,-6.9341,-6.94,-6.9493,-6.9615,-6.9569,-6.9616,-6.9604,-6.9682,-6.985,-6.9621,-6.9622,-6.9664,-7.0046,-7.0086,-7.0118,-6.9824,-6.983,-6.9834,-7.0042,0,-6.8997,-6.9193,-6.9188,-6.9369,-6.9461,-6.9416,-6.9512,-6.9563,-6.9578,-6.9656,-6.9672,-6.976,-6.9692,-6.972,-6.9794,-6.9814,-6.9926,-6.9798,-6.9909,-6.9914,-6.9899,-7.0154,-7.0196,-7.039,-7.0069,-7.0073,-7.0076,0,-6.9258,-6.933,-6.9522,-6.9577,-6.9615,-6.9702,-6.9781,-6.9857,-6.9913,-6.9918,-6.9971,-6.9948,-7.0058,-6.9966,-7.0117,-7.003,-7.0075,-7.0091,-7.0098,-7.011,-7.0006,-7.0174,-7.0452,-7.0482,-7.0118,-7.0115,-7.0112,0,-6.9429,-6.9573,-6.9707,-6.9741,-6.9808,-6.9871,-6.9901,-6.9952,-7.0005,-7.0073,-7.0107,-7.0186,-7.023,-7.0291,-7.0289,-7.0221,-7.0443,-7.035,-7.045,-7.0451,-7.05,-7.0497,-7.0791,-7.0527,-7.0526,-7.0526,-7.0525,0,-6.9655,-6.9774,-6.9785,-6.9867,-6.9999,-6.9991,-7.0121,-7.0145,-7.0191,-7.0276,-7.024,-7.032,-7.0312,-7.0393,-7.0391,-7.0518,-7.0537,-7.0544,-7.0543,-7.0549,-7.0548,-7.0579,-7.0566,-7.0533,-7.0532,-7.053,-7.0529,0,-6.9868,-6.988,-7.0024,-7.0076,-7.0092,-7.0187,-7.023,-7.0308,-7.032,-7.0428,-7.0453,-7.0472,-7.0565,-7.0569,-7.0674,-7.0673,-7.0828,-7.081,-7.081,-7.0808,-7.0909,-7.09,-7.1234,-7.1278,-7.0983,-7.0986,-7.0988,0,-7.0013,-7.0105,-7.0167,-7.0223,-7.0258,-7.0348,-7.0402,-7.0397,-7.0455,-7.0526,-7.0595,-7.0685,-7.0757,-7.0907,-7.0928,-7.1009,-7.0994,-7.1106,-7.1006,-7.101,-7.0998,-7.0993,-7.1003,-7.1125,-7.1129,-7.1131,-7.1134,0,-7.0269,-7.0271,-7.0352,-7.0436,-7.0503,-7.0567,-7.0628,-7.0675,-7.0676,-7.0742,-7.0839,-7.0895,-7.1004,-7.1094,-7.1172,-7.1201,-7.1168,-7.1165,-7.1193,-7.12,-7.1198,-7.1202,-7.0865,-7.1157,-7.1155,-7.1153,-7.1152,-7.1151,-7.0454,-7.0533,-7.0591,-7.0683,-7.0728,-7.0785,-7.0862,-7.0884,-7.0965,-7.1056,-7.1047,-7.1154,-7.1206,-7.1309,-7.1345,-7.1427,-7.1388,-7.1428,-7.1438,-7.1449,-7.1461,-7.1183,-7.144,-7.144,-7.1439,-7.1439,-7.1438,0,-7.0709,-7.0745,-7.0829,-7.0916,-7.0988,-7.0953,-7.1017,-7.1079,-7.1175,-7.1228,-7.1301,-7.1411,-7.1498,-7.1527,-7.1611,-7.1671,-7.1658,-7.1693,-7.169,-7.1697,-7.1489,-7.1458,-7.1703,-7.1703,-7.1703,-7.1702,-7.1702,-7.1702,-7.0851,-7.0985,-7.0993,-7.1148,-7.1181,-7.1288,-7.1329,-7.1381,-7.1424,-7.155,-7.1623,-7.1642,-7.1686,-7.1773,-7.1851,-7.1856,-7.189,-7.1932,-7.1932,-7.1738,-7.1711,-7.1686,-7.1656,-7.1939,-7.1939,-7.2133,-7.2134,-7.2136]}]]